Regional Weather Roundup
Issued by NWS

Home | Current Version | Previous Version | Text Only | Print | Product List | Glossary On
Versions: 1 2 3 4 5 6 7 8 9 10 11 12 13 14 15 16 17 18 19 20 21 22 23 24 25 26 27 28 29 30 31 32 33 34 35 36 37 38 39 40 41 42 43 44 45 46 47 48 49 50
000
ASUS44 KFWD 072103
RWRTX
NORTH TEXAS HOURLY WEATHER ROUNDUP
NATIONAL WEATHER SERVICE FORT WORTH TX
400 PM CDT TUE JUL 07 2015

NOTE: "FAIR" INDICATES FEW OR NO CLOUDS BELOW 12,000 FEET WITH NO
SIGNIFICANT WEATHER AND/OR OBSTRUCTIONS TO VISIBILITY.

TXZ118-119-072200-
DALLAS/FORT WORTH METROPLEX

CITY           SKY/WX    TMP DP  RH WIND       PRES   REMARKS
DFW AIRPORT    CLOUDY    89  70  53 S15       29.93S HX  94
DALLAS LOVE    CLOUDY    88  71  57 SW8       29.93F HX  94
FTW MEACHAM    CLOUDY    87  71  58 SW7       29.93F HX  93
DAL-EXECUTIVE  CLOUDY    87  69  54 S8G18     29.94S HX  91
FTW-ALLIANCE   CLOUDY    88  71  57 SW10G16   29.94F HX  94
FTW-NAS-JRB    CLOUDY    88  71  57 SW9       29.94F HX  94
FTW-SPINKS     MOSUNNY   88  72  58 S12       29.96S HAZE    HX  94
ARLINGTON      CLOUDY    89  69  51 S15G23    29.94S HX  93
GRAND PRAIRIE  SUNNY     88  72  58 S12G23    29.95F HX  94
ADDISON        PTSUNNY   79  70  73 S14G26    29.96R
MESQUITE         N/A     90  70  51 S13         N/A  HX  95
LANCASTER      CLOUDY    86  72  63 S12       29.95F HX  91
$$

TXZ091>094-102>105-117-120-121-131>134-072200-
NORTH CENTRAL TEXAS

CITY           SKY/WX    TMP DP  RH WIND       PRES   REMARKS
SHRMAN/DENISON CLOUDY    87  72  60 SW14G20   29.95F HX  94
BRIDGEPORT     DRIZZLE   76  76 100 CALM      29.98F
DECATUR        CLOUDY    79  71  78 W5        29.97S
DENTON         CLOUDY    85  71  63 SW13      29.94F HX  90
MCKINNEY       RAIN      82  73  74 W15G28    29.94F
TERRELL        CLOUDY    88  73  61 S14       29.95F HX  95
WAXAHACHIE     CLOUDY    89  71  55 S16G22    29.96S HX  94
CLEBURNE       CLOUDY    86  75  70 S12       29.96F HX  95
$$

TXZ083>090-098>101-113>116-127>130-139>142-154-155-072200-
WESTERN NORTH TEXAS

CITY           SKY/WX    TMP DP  RH WIND       PRES   REMARKS
WICHITA FALLS  LGT RAIN  75  73  93 S14       29.93F
WF-KICKAPOO    DRIZZLE   76  73  89 S13       29.95F
VERNON         CLOUDY    72  66  82 N17       29.98S
ABILENE        HVY RAIN  73  72  96 CALM      29.98S FOG
ABILENE-DYESS  CLOUDY    73  70  88 S3        29.97S
GRAHAM         DRIZZLE   74  73  95 S3        29.95S
MINERAL WELLS  LGT RAIN  78  73  84 SE3       29.94F
STEPHENVILLE   CLOUDY    84  67  55 S9G17     29.98F
COMANCHE       CLOUDY    84  69  59 S9        29.96F
COLEMAN        CLOUDY    77  74  91 CALM      29.96F
$$

TXZ143>147-156>162-174-175-072200-
CENTRAL TEXAS

CITY           SKY/WX    TMP DP  RH WIND       PRES   REMARKS
WACO           CLOUDY    91  70  49 S18       29.95S HX  96
WACO-TSTC      MOSUNNY   91  72  52 S15G23    29.95S HX  98
WACO-MCGREGOR  CLOUDY    90  70  51 S17G24    29.95F HX  95
CORSICANA      CLOUDY    91  73  55 S18       29.97F HX  99
MEXIA          CLOUDY    87  74  64 SE15G28   29.96S HX  96
HEARNE         CLOUDY    89  75  63 S12G17    29.97F HX 100
CAMERON        CLOUDY    87  77  72 S13G20    29.96S HX  99
TEMPLE         CLOUDY    88  70  55 S18       29.95S HX  92
KILLEEN        CLOUDY    87  69  54 S17       29.95F HX  91
KILLEEN-SKYLRK CLOUDY    90  68  48 S20       29.95S HX  93
FORT HOOD      CLOUDY    89  68  50 S18       29.94F HX  92
GATESVILLE     CLOUDY    90  70  51 S9G22     29.97F HX  95
HAMILTON       CLOUDY    87  67  50 S14G22    29.97F
LAMPASAS       CLOUDY    91  71  53 S12G20    29.95F HX  97
$$

TXZ095>097-106>112-122>126-135>138-148>153-164>167-072200-
EAST TEXAS

CITY           SKY/WX    TMP DP  RH WIND       PRES   REMARKS
PARIS          CLOUDY    88  72  58 S16       29.96S HX  94
SULPHUR SPRNGS CLOUDY    90  70  52 SW20G25   29.99S HX  95
GILMER         PTSUNNY   89  72  55 S8        29.97F HX  96
MINEOLA        CLOUDY    91  70  49 S10G18    29.97F HX  97
TYLER          CLOUDY    90  72  55 S16       29.97F HX  97
LONGVIEW       MOSUNNY   92  72  51 S16G24    29.97F HX  99
MARSHALL       MOSUNNY   94  74  52 S10G17    30.00F HX 103
ATHENS         CLOUDY    88  70  55 S9        29.95F HX  92
PALESTINE      CLOUDY    92  71  50 S9G17     29.98S HX  99
JACKSONVILLE   PTSUNNY   91  69  48 S12       30.01F HX  96
HENDERSON      PTSUNNY   90  73  57 S12G18    29.99F HX  98
NACOGDOCHES    MOSUNNY   90  70  51 S14G23    29.98F HX  95
LUFKIN         MOSUNNY   96  71  44 S13       29.99F HX 103
$$

SUPPLEMENTAL OBSERVATIONS (CENTRAL)

CITY           SKY/WX    TMP DP  RH WIND       PRES   REMARKS
$$

SUPPLEMENTAL OBSERVATIONS (WEST)

CITY           SKY/WX    TMP DP  RH WIND       PRES   REMARKS
$$

SUPPLEMENTAL OBSERVATIONS (EAST)

CITY           SKY/WX    TMP DP  RH WIND       PRES   REMARKS
$$

SUPPLEMENTAL OBSERVATIONS ARE A COLLECTION OF AUTOMATED INSTRUMENTS
THAT ARE MAINTAINED BY A VARIETY OF FEDERAL AND STATE AGENCIES.
CERTAIN ELEMENTS...SUCH AS HUMIDITY VALUES AND SUSTAINED WIND
SPEEDS...MAY BE APPROXIMATED.



USA.gov is the U.S. government's official web portal to all federal, state and local government web resources and services.